Location: Albany
(35.0000°S, 118.0000°E)
Time: 13:30:26
(UTC-04:00)

Vanguard 3 - Visible Passes

Search period start: 29 April 2017 00:00
Search period end: 09 May 2017 00:00
Orbit: 508 x 3266 km, 33.4° (Epoch: 27 April)

Date Brightness Start Highest point End Pass type
(mag) Time Alt. Az. Time Alt. Az. Time Alt. Az.
29 Apr 9.6 06:47:23 10° NNW 06:58:57 29° NNE 07:03:24 21° ENE visible
29 Apr 9.6 09:01:22 10° WNW 09:08:01 33° NW 09:08:01 33° NW visible
30 Apr 10.2 05:33:16 10° N 05:43:53 21° NNE 05:51:46 10° ENE visible
30 Apr 8.9 07:45:17 10° NW 07:58:02 45° NNE 07:58:42 44° NNE visible
30 Apr 10.4 10:01:04 10° WNW 10:03:18 17° WNW 10:03:18 17° WNW visible
01 May 9.6 06:29:38 10° NNW 06:43:13 35° NNE 06:49:21 20° ENE visible
01 May 9.1 08:44:36 10° WNW 08:53:57 47° NW 08:53:57 47° NW visible
02 May 8.8 07:28:06 10° NW 07:42:22 52° NNE 07:44:35 46° NE visible
02 May 10.1 09:44:38 10° WNW 09:49:11 25° WNW 09:49:11 25° WNW visible
03 May 9.7 06:12:02 10° NW 06:27:21 42° NNE 06:35:11 18° E visible
03 May 8.8 08:27:49 10° WNW 08:39:47 62° NNW 08:39:47 62° NNW visible
04 May 8.9 07:10:57 10° NW 07:26:35 60° NNE 07:30:21 42° ENE visible
04 May 9.8 09:28:08 10° W 09:34:57 34° W 09:34:57 34° W visible
05 May 9.8 05:54:34 10° NW 06:11:21 49° NNE 06:20:54 14° E visible
05 May 8.6 08:11:00 10° WNW 08:25:30 75° N 08:25:30 75° N visible
05 May 10.7 10:28:29 10° W 10:30:05 15° W 10:30:05 15° W visible
06 May 9.1 06:53:51 10° WNW 07:10:42 66° NNE 07:16:01 36° E visible
06 May 9.4 09:11:34 10° W 09:20:37 45° W 09:20:37 45° W visible
07 May 9.9 05:37:14 10° NW 05:55:13 55° NNE 06:06:32 11° E visible
07 May 8.6 07:54:11 10° WNW 08:09:58 79° N 08:11:07 73° ENE visible
07 May 10.4 10:12:05 10° W 10:15:42 21° W 10:15:42 21° W visible
08 May 9.3 06:36:50 10° WNW 06:54:43 71° NNE 07:01:37 30° E visible
08 May 9.2 08:54:55 10° W 09:06:12 57° W 09:06:12 57° W visible
